Location: Street
(51.1247°N, 2.7429°W)
Time: 08:45:55
(UTC+00:00)

Tiros 1 - Pass Details

Date: 05 December 2020
Orbit: 630 x 663 km, 48.4° (Epoch: 21 January)

Event Time Altitude Azimuth Distance (km) Brightness Sun altitude
Rises 14:20:03 0° 242° (WSW) 2,989 11.7 10.4°
Reaches altitude 10° 14:22:27 10° 237° (WSW) 2,079 11.2 10.2°
Maximum altitude 14:27:05 49° 163° (SSE) 855 8.3 9.8°
Drops below altitude 10° 14:31:43 10° 89° (E) 2,079 9.5 9.4°
Sets 14:34:06 0° 84° (E) 2,990 10.2 9.1°
